TimeEDT,TemperatureF,Dew PointF,Humidity,Sea Level PressureIn,VisibilityMPH,Wind Direction,Wind SpeedMPH,Gust SpeedMPH,PrecipitationIn,Events,Conditions,WindDirDegrees,DateUTC
12:53 AM,61.0,48.9,64,29.99,10.0,ENE,6.9,-,N/A,,Overcast,60,2013-06-06 04:53:00
1:53 AM,60.1,51.1,72,29.98,10.0,NE,4.6,-,N/A,,Mostly Cloudy,40,2013-06-06 05:53:00
2:53 AM,60.1,50.0,69,29.96,10.0,ENE,3.5,-,N/A,,Partly Cloudy,60,2013-06-06 06:53:00
3:53 AM,59.0,48.9,69,29.95,10.0,NE,5.8,-,N/A,,Mostly Cloudy,50,2013-06-06 07:53:00
4:53 AM,57.9,46.9,67,29.93,10.0,NE,6.9,-,N/A,,Mostly Cloudy,50,2013-06-06 08:53:00
5:53 AM,57.9,46.0,65,29.94,10.0,Variable,4.6,-,N/A,,Scattered Clouds,0,2013-06-06 09:53:00
6:53 AM,57.9,44.1,60,29.93,10.0,Variable,4.6,-,N/A,,Overcast,0,2013-06-06 10:53:00
7:53 AM,57.9,44.1,60,29.92,10.0,Calm,Calm,-,N/A,,Overcast,0,2013-06-06 11:53:00
8:53 AM,57.9,48.0,70,29.92,10.0,Calm,Calm,-,0.00,Rain,Light Rain,0,2013-06-06 12:53:00
9:53 AM,61.0,46.9,60,29.93,10.0,Calm,Calm,-,0.00,,Overcast,0,2013-06-06 13:53:00
10:53 AM,60.1,51.1,72,29.92,10.0,NNE,6.9,-,0.00,Rain,Light Rain,30,2013-06-06 14:53:00
11:53 AM,63.0,51.1,65,29.91,10.0,NNE,10.4,16.1,0.00,,Overcast,20,2013-06-06 15:53:00
12:53 PM,66.0,53.1,63,29.90,10.0,NE,9.2,-,N/A,,Mostly Cloudy,40,2013-06-06 16:53:00
1:53 PM,69.1,53.1,57,29.88,10.0,NE,6.9,-,N/A,,Overcast,50,2013-06-06 17:53:00
2:53 PM,69.1,51.1,53,29.88,10.0,ENE,4.6,-,N/A,,Mostly Cloudy,70,2013-06-06 18:53:00
3:53 PM,66.9,51.1,57,29.89,10.0,North,10.4,-,N/A,,Overcast,360,2013-06-06 19:53:00
4:53 PM,66.0,53.1,63,29.88,10.0,North,6.9,-,0.00,Rain,Light Rain,10,2013-06-06 20:53:00
5:53 PM,64.9,53.1,65,29.88,10.0,NNE,9.2,-,0.00,,Overcast,30,2013-06-06 21:53:00
6:53 PM,64.0,53.1,67,29.89,10.0,NNE,8.1,-,N/A,,Overcast,20,2013-06-06 22:53:00
7:53 PM,63.0,52.0,67,29.89,10.0,NNE,8.1,-,N/A,,Overcast,20,2013-06-06 23:53:00
8:53 PM,62.1,52.0,70,29.90,10.0,NNE,8.1,-,N/A,,Mostly Cloudy,30,2013-06-07 00:53:00
9:53 PM,61.0,51.1,70,29.91,10.0,NNE,6.9,-,N/A,,Overcast,20,2013-06-07 01:53:00
10:53 PM,59.0,50.0,72,29.93,10.0,NE,6.9,-,N/A,,Mostly Cloudy,50,2013-06-07 02:53:00
11:53 PM,57.0,50.0,77,29.92,10.0,NNE,4.6,-,N/A,,Clear,30,2013-06-07 03:53:00